Location: ????????
(37.9452°N, 23.1472°E)
Time: 20:03:25
(UTC+00:00)

IRS-1C Rocket - Pass Details

Date: 18 April 2024
Orbit: 799 x 806 km, 98.8° (Epoch: 27 May)

Event Time Altitude Azimuth Distance (km) Brightness Sun altitude
Exits shadow 19:42:47 58° 229° (SW) 934 4.3 -27.7°
Maximum altitude 19:43:19 62° 258° (WSW) 906 4.4 -27.8°
Drops below altitude 10° 19:48:34 10° 339° (NNW) 2,393 7.3 -28.5°
Sets 19:50:56 0° 343° (NNW) 3,328 8.2 -28.8°
